Year,Month,Day,Hour,Minute,Value (Times are PST for temperature in C)
2007,06,23,00,00,12.90
2007,06,23,00,01,12.90
2007,06,23,00,02,12.90
2007,06,23,00,03,12.90
2007,06,23,00,04,12.90
2007,06,23,00,05,13.00
2007,06,23,00,06,13.00
2007,06,23,00,07,13.00
2007,06,23,00,08,13.00
2007,06,23,00,09,13.00
2007,06,23,00,10,13.00
2007,06,23,00,11,13.00
2007,06,23,00,12,13.00
2007,06,23,01,02,12.30
2007,06,23,01,03,12.30
2007,06,23,01,04,12.30
2007,06,23,01,05,12.30
2007,06,23,01,06,12.30
2007,06,23,01,07,12.30
2007,06,23,01,08,12.30
2007,06,23,01,09,12.30
2007,06,23,01,10,12.30
2007,06,23,01,11,12.30
2007,06,23,01,12,12.30
2007,06,23,01,13,12.20
2007,06,23,01,14,12.20
2007,06,23,01,15,12.20
2007,06,23,01,16,12.20
2007,06,23,01,17,12.20
2007,06,23,01,18,12.20
2007,06,23,01,19,12.20
2007,06,23,01,20,12.20
2007,06,23,01,21,12.20
2007,06,23,01,22,12.20
2007,06,23,01,23,12.20
2007,06,23,01,24,12.20
2007,06,23,01,25,12.20
2007,06,23,01,26,12.10
2007,06,23,01,27,12.10
2007,06,23,01,28,12.10
2007,06,23,01,29,12.10
2007,06,23,01,30,12.10
2007,06,23,01,31,12.10
2007,06,23,01,32,12.20
2007,06,23,01,33,12.20
2007,06,23,01,34,12.20
2007,06,23,01,35,12.20
2007,06,23,01,36,12.20
2007,06,23,01,37,12.20
2007,06,23,01,38,12.20
2007,06,23,01,39,12.20
2007,06,23,01,40,12.20
2007,06,23,01,41,12.20
2007,06,23,01,42,12.20
2007,06,23,01,43,12.20
2007,06,23,01,44,12.20
2007,06,23,01,45,12.20
2007,06,23,01,46,12.20
2007,06,23,01,47,12.10
2007,06,23,01,48,12.10
2007,06,23,01,49,12.10
2007,06,23,01,50,12.10
2007,06,23,01,51,12.10
2007,06,23,01,52,12.10
2007,06,23,01,53,12.10
2007,06,23,01,54,12.10
2007,06,23,01,55,12.10
2007,06,23,01,56,12.10
2007,06,23,01,57,12.00
2007,06,23,01,58,12.00
2007,06,23,01,59,12.00
2007,06,23,02,00,12.00
2007,06,23,02,01,11.90
2007,06,23,02,02,11.90
2007,06,23,02,03,11.90
2007,06,23,02,04,11.90
2007,06,23,02,05,11.90
2007,06,23,02,06,11.90
2007,06,23,02,07,11.90
2007,06,23,02,08,11.90
2007,06,23,02,09,11.80
2007,06,23,02,10,11.80
2007,06,23,02,11,11.80
2007,06,23,02,12,11.80
2007,06,23,02,13,11.80
2007,06,23,02,14,11.80
2007,06,23,02,15,11.80
2007,06,23,02,16,11.70
2007,06,23,02,17,11.70
2007,06,23,02,18,11.70
2007,06,23,02,19,11.70
2007,06,23,02,20,11.70
2007,06,23,02,21,11.70
2007,06,23,02,22,11.70
2007,06,23,02,23,11.70
2007,06,23,02,24,11.80
2007,06,23,02,25,11.80
2007,06,23,02,26,11.80
2007,06,23,02,27,11.80
2007,06,23,02,28,11.80
2007,06,23,02,29,11.70
2007,06,23,02,30,11.70
2007,06,23,02,31,11.70
2007,06,23,02,32,11.70
2007,06,23,02,33,11.70
2007,06,23,02,34,11.70
2007,06,23,02,35,11.70
2007,06,23,02,36,11.70
2007,06,23,02,37,11.70
2007,06,23,02,38,11.70
2007,06,23,02,39,11.70
2007,06,23,02,40,11.70
2007,06,23,02,41,11.70
2007,06,23,02,42,11.70
2007,06,23,02,43,11.60
2007,06,23,02,44,11.60
2007,06,23,02,45,11.60
2007,06,23,02,46,11.60
2007,06,23,02,47,11.60
2007,06,23,02,48,11.60
2007,06,23,02,49,11.60
2007,06,23,02,50,11.60
2007,06,23,02,51,11.50
2007,06,23,02,52,11.50
2007,06,23,02,53,11.40
2007,06,23,02,54,11.40
2007,06,23,02,55,11.40
2007,06,23,02,56,11.40
2007,06,23,02,57,11.40
2007,06,23,02,58,11.40
2007,06,23,02,59,11.40
2007,06,23,03,00,11.40
2007,06,23,03,01,11.40
2007,06,23,03,02,11.40
2007,06,23,03,03,11.40
2007,06,23,03,04,11.30
2007,06,23,03,05,11.30
2007,06,23,03,06,11.30
2007,06,23,03,07,11.30
2007,06,23,03,08,11.30
2007,06,23,03,09,11.30
2007,06,23,03,10,11.30
2007,06,23,03,11,11.30
2007,06,23,03,12,11.30
2007,06,23,03,13,11.30
2007,06,23,03,14,11.30
2007,06,23,03,15,11.20
2007,06,23,03,16,11.20
2007,06,23,03,17,11.20
2007,06,23,03,18,11.20
2007,06,23,03,19,11.10
2007,06,23,03,20,11.10
2007,06,23,03,21,11.10
2007,06,23,03,22,11.10
2007,06,23,03,23,11.10
2007,06,23,03,24,11.10
2007,06,23,03,25,11.10
2007,06,23,03,26,11.10
2007,06,23,03,27,11.00
2007,06,23,03,28,11.00
2007,06,23,03,29,11.00
2007,06,23,03,30,11.00
2007,06,23,03,31,11.00
2007,06,23,03,32,10.90
2007,06,23,03,33,10.90
2007,06,23,03,34,10.90
2007,06,23,03,35,10.90
2007,06,23,03,36,10.90
2007,06,23,03,37,10.80
2007,06,23,03,38,10.80
2007,06,23,03,39,10.80
2007,06,23,03,40,10.80
2007,06,23,03,41,10.80
2007,06,23,03,42,10.70
2007,06,23,03,43,10.70
2007,06,23,03,44,10.70
2007,06,23,03,45,10.70
2007,06,23,03,46,10.60
2007,06,23,03,47,10.60
2007,06,23,03,48,10.60
2007,06,23,03,49,10.60
2007,06,23,03,50,10.60
2007,06,23,03,51,10.50
2007,06,23,03,52,10.50
2007,06,23,03,53,10.50
2007,06,23,03,54,10.50
2007,06,23,03,55,10.50
2007,06,23,03,56,10.50
2007,06,23,03,57,10.40
2007,06,23,03,58,10.40
2007,06,23,03,59,10.40
2007,06,23,04,00,10.40
2007,06,23,04,01,10.40
2007,06,23,04,02,10.40
2007,06,23,04,03,10.40
2007,06,23,04,04,10.40
2007,06,23,04,05,10.40
2007,06,23,04,06,10.40
2007,06,23,04,07,10.40
2007,06,23,04,08,10.40
2007,06,23,04,09,10.40
2007,06,23,04,10,10.40
2007,06,23,04,11,10.40
2007,06,23,04,12,10.40
2007,06,23,04,13,10.40
2007,06,23,04,14,10.40
2007,06,23,04,15,10.40
2007,06,23,04,16,10.40
2007,06,23,04,17,10.40
2007,06,23,04,18,10.50
2007,06,23,04,19,10.50
2007,06,23,04,20,10.50
2007,06,23,04,21,10.50
2007,06,23,04,22,10.50
2007,06,23,04,23,10.50
2007,06,23,04,24,10.60
2007,06,23,04,25,10.60
2007,06,23,04,26,10.60
2007,06,23,04,27,10.60
2007,06,23,04,28,10.60
2007,06,23,04,29,10.60
2007,06,23,04,30,10.60
2007,06,23,04,31,10.60
2007,06,23,04,32,10.60
2007,06,23,04,33,10.60
2007,06,23,04,34,10.60
2007,06,23,04,35,10.60
2007,06,23,04,36,10.60
2007,06,23,04,37,10.60
2007,06,23,04,38,10.60
2007,06,23,04,39,10.60
2007,06,23,04,40,10.60
2007,06,23,04,41,10.60
2007,06,23,04,42,10.60
2007,06,23,04,43,10.60
2007,06,23,04,44,10.60
2007,06,23,04,45,10.60
2007,06,23,04,46,10.60
2007,06,23,04,47,10.60
2007,06,23,04,48,10.60
2007,06,23,04,49,10.50
2007,06,23,04,50,10.50
2007,06,23,04,51,10.50
2007,06,23,04,52,10.50
2007,06,23,04,53,10.50
2007,06,23,04,54,10.40
2007,06,23,04,55,10.40
2007,06,23,04,56,10.40
2007,06,23,04,57,10.40
2007,06,23,04,58,10.40
2007,06,23,04,59,10.40
2007,06,23,05,00,10.40
2007,06,23,05,01,10.40
2007,06,23,05,02,10.30
2007,06,23,05,03,10.30
2007,06,23,05,04,10.30
2007,06,23,05,05,10.30
2007,06,23,05,06,10.30
2007,06,23,05,07,10.30
2007,06,23,05,08,10.30
2007,06,23,05,09,10.30
2007,06,23,05,10,10.30
2007,06,23,05,11,10.30
2007,06,23,05,12,10.20
2007,06,23,05,13,10.20
2007,06,23,05,14,10.20
2007,06,23,05,15,10.20
2007,06,23,05,16,10.20
2007,06,23,05,17,10.20
2007,06,23,05,18,10.20
2007,06,23,05,19,10.20
2007,06,23,05,20,10.20
2007,06,23,05,21,10.20
2007,06,23,05,22,10.20
2007,06,23,05,23,10.20
2007,06,23,05,24,10.20
2007,06,23,05,25,10.20
2007,06,23,05,26,10.20
2007,06,23,05,27,10.20
2007,06,23,05,28,10.20
2007,06,23,05,29,10.20
2007,06,23,05,30,10.20
2007,06,23,05,31,10.20
2007,06,23,05,32,10.20
2007,06,23,05,33,10.30
2007,06,23,05,34,10.30
2007,06,23,05,35,10.30
2007,06,23,05,36,10.30
2007,06,23,05,37,10.30
2007,06,23,05,38,10.30
2007,06,23,05,39,10.30
2007,06,23,05,40,10.30
2007,06,23,05,41,10.30
2007,06,23,05,42,10.30
2007,06,23,05,43,10.30
2007,06,23,05,44,10.30
2007,06,23,05,45,10.30
2007,06,23,05,46,10.40
2007,06,23,05,47,10.40
2007,06,23,05,48,10.40
2007,06,23,05,49,10.40
2007,06,23,05,50,10.40
2007,06,23,05,51,10.40
2007,06,23,05,52,10.40
2007,06,23,05,53,10.50
2007,06,23,05,54,10.50
2007,06,23,05,55,10.50
2007,06,23,05,56,10.50
2007,06,23,05,57,10.50
2007,06,23,05,58,10.50
2007,06,23,05,59,10.50
2007,06,23,06,00,10.50
2007,06,23,06,01,10.60
2007,06,23,06,02,10.60
2007,06,23,06,03,10.60
2007,06,23,06,04,10.60
2007,06,23,06,05,10.60
2007,06,23,06,06,10.60
2007,06,23,06,07,10.60
2007,06,23,06,08,10.60
2007,06,23,06,09,10.60
2007,06,23,06,10,10.60
2007,06,23,06,11,10.60
2007,06,23,06,12,10.60
2007,06,23,06,13,10.60
2007,06,23,06,14,10.60
2007,06,23,06,15,10.60
2007,06,23,06,16,10.70
2007,06,23,06,17,10.70
2007,06,23,06,18,10.70
2007,06,23,06,19,10.70
2007,06,23,06,20,10.70
2007,06,23,06,21,10.70
2007,06,23,06,22,10.70
2007,06,23,06,23,10.70
2007,06,23,06,24,10.70
2007,06,23,06,25,10.70
2007,06,23,06,26,10.70
2007,06,23,06,27,10.70
2007,06,23,06,28,10.70
2007,06,23,06,29,10.70
2007,06,23,06,30,10.70
2007,06,23,06,31,10.70
2007,06,23,06,32,10.70
2007,06,23,06,33,10.70
2007,06,23,06,34,10.70
2007,06,23,06,35,10.70
2007,06,23,06,36,10.70
2007,06,23,06,37,10.70
2007,06,23,06,38,10.80
2007,06,23,06,39,10.80
2007,06,23,06,40,10.80
2007,06,23,06,41,10.80
2007,06,23,06,42,10.80
2007,06,23,06,43,10.80
2007,06,23,06,44,10.80
2007,06,23,06,45,10.70
2007,06,23,06,46,10.80
2007,06,23,06,47,10.70
2007,06,23,06,48,10.70
2007,06,23,06,49,10.70
2007,06,23,06,50,10.70
2007,06,23,06,51,10.80
2007,06,23,06,52,10.80
2007,06,23,06,53,10.80
2007,06,23,06,54,10.80
2007,06,23,06,55,10.80
2007,06,23,06,56,10.80
2007,06,23,06,57,10.80
2007,06,23,06,58,10.80
2007,06,23,06,59,10.80
2007,06,23,07,00,10.80
2007,06,23,07,01,10.90
2007,06,23,07,02,10.90
2007,06,23,07,03,10.80
2007,06,23,07,04,10.80
2007,06,23,07,05,10.80
2007,06,23,07,06,10.80
2007,06,23,07,07,10.90
2007,06,23,07,08,10.90
2007,06,23,07,09,10.90
2007,06,23,07,10,10.90
2007,06,23,07,11,10.90
2007,06,23,07,12,10.80
2007,06,23,07,13,10.80
2007,06,23,07,14,10.80
2007,06,23,07,15,10.80
2007,06,23,07,16,10.80
2007,06,23,07,17,10.80
2007,06,23,07,18,10.80
2007,06,23,07,19,10.70
2007,06,23,07,20,10.70
2007,06,23,07,21,10.70
2007,06,23,07,22,10.70
2007,06,23,07,23,10.70
2007,06,23,07,24,10.70
2007,06,23,07,25,10.70
2007,06,23,07,26,10.70
2007,06,23,07,27,10.70
2007,06,23,07,28,10.70
2007,06,23,07,29,10.70
2007,06,23,07,30,10.70
2007,06,23,07,31,10.70
2007,06,23,07,32,10.70
2007,06,23,07,33,10.70
2007,06,23,07,34,10.70
2007,06,23,07,35,10.70
2007,06,23,07,36,10.70
2007,06,23,07,37,10.70
2007,06,23,07,38,10.70
2007,06,23,07,39,10.70
2007,06,23,07,40,10.70
2007,06,23,07,41,10.80
2007,06,23,07,42,10.80
2007,06,23,07,43,10.90
2007,06,23,07,44,10.90
2007,06,23,07,45,11.00
2007,06,23,07,46,11.10
2007,06,23,07,47,11.10
2007,06,23,07,48,11.20
2007,06,23,07,49,11.30
2007,06,23,07,50,11.40
2007,06,23,07,51,11.40
2007,06,23,07,52,11.50
2007,06,23,07,53,11.60
2007,06,23,07,54,11.60
2007,06,23,07,55,11.70
2007,06,23,07,56,11.80
2007,06,23,07,57,11.80
2007,06,23,07,58,11.90
2007,06,23,07,59,12.00
2007,06,23,08,00,12.20
2007,06,23,08,01,12.30
2007,06,23,08,02,12.40
2007,06,23,08,03,12.50
2007,06,23,08,04,12.60
2007,06,23,08,05,12.70
2007,06,23,08,06,12.70
2007,06,23,08,07,12.70
2007,06,23,08,08,12.80
2007,06,23,08,09,12.90
2007,06,23,08,10,13.00
2007,06,23,08,11,13.10
2007,06,23,08,12,13.20
2007,06,23,08,13,13.30
2007,06,23,08,14,13.40
2007,06,23,08,15,13.50
2007,06,23,08,16,13.60
2007,06,23,08,17,13.60
2007,06,23,08,18,13.70
2007,06,23,08,19,13.70
2007,06,23,08,20,13.80
2007,06,23,08,21,13.80
2007,06,23,08,22,13.90
2007,06,23,08,23,13.90
2007,06,23,08,24,14.00
2007,06,23,08,25,14.00
2007,06,23,08,26,14.00
2007,06,23,08,27,14.00
2007,06,23,08,28,14.00
2007,06,23,08,29,14.00
2007,06,23,08,30,14.00
2007,06,23,08,31,14.10
2007,06,23,08,32,14.10
2007,06,23,08,33,14.10
2007,06,23,08,34,14.20
2007,06,23,08,35,14.20
2007,06,23,08,36,14.30
2007,06,23,08,37,14.30
2007,06,23,08,38,14.30
2007,06,23,08,39,14.30
2007,06,23,08,40,14.30
2007,06,23,08,41,14.20
2007,06,23,08,42,14.20
2007,06,23,08,43,14.10
2007,06,23,08,44,14.10
2007,06,23,08,45,14.10
2007,06,23,08,46,14.10
2007,06,23,08,47,14.10
2007,06,23,08,48,14.10
2007,06,23,08,49,14.10
2007,06,23,08,50,13.90
2007,06,23,08,51,13.80
2007,06,23,08,52,13.70
2007,06,23,08,53,13.60
2007,06,23,08,54,13.50
2007,06,23,08,55,13.50
2007,06,23,08,56,13.60
2007,06,23,08,57,13.70
2007,06,23,08,58,13.60
2007,06,23,08,59,13.60
2007,06,23,09,00,13.70
2007,06,23,09,01,13.80
2007,06,23,09,02,13.80
2007,06,23,09,03,13.80
2007,06,23,09,04,13.80
2007,06,23,09,05,13.80
2007,06,23,09,06,13.80
2007,06,23,09,07,13.80
2007,06,23,09,08,13.80
2007,06,23,09,09,13.80
2007,06,23,09,10,13.80
2007,06,23,09,11,13.70
2007,06,23,09,12,13.60
2007,06,23,09,13,13.60
2007,06,23,09,14,13.50
2007,06,23,09,15,13.40
2007,06,23,09,16,13.30
2007,06,23,09,17,13.20
2007,06,23,09,18,13.20
2007,06,23,09,19,13.20
2007,06,23,09,20,13.10
2007,06,23,09,21,13.10
2007,06,23,09,22,13.10
2007,06,23,09,23,13.00
2007,06,23,09,24,13.00
2007,06,23,09,25,12.90
2007,06,23,09,26,12.90
2007,06,23,09,27,12.70
2007,06,23,09,28,12.50
2007,06,23,09,29,12.20
2007,06,23,09,30,12.10
2007,06,23,09,31,12.00
2007,06,23,09,32,11.90
2007,06,23,09,33,11.80
2007,06,23,09,34,11.80
2007,06,23,09,35,11.70
2007,06,23,09,36,11.70
2007,06,23,09,37,11.70
2007,06,23,09,38,11.70
2007,06,23,09,39,11.70
2007,06,23,09,40,11.70
2007,06,23,09,41,11.70
2007,06,23,09,42,11.80
2007,06,23,09,43,11.80
2007,06,23,09,44,11.80
2007,06,23,09,45,11.90
2007,06,23,09,46,11.90
2007,06,23,09,47,11.90
2007,06,23,09,48,11.80
2007,06,23,09,49,11.90
2007,06,23,09,50,11.90
2007,06,23,09,51,11.90
2007,06,23,09,52,12.00
2007,06,23,09,53,12.00
2007,06,23,09,54,12.10
2007,06,23,09,55,12.20
2007,06,23,09,56,12.30
2007,06,23,09,57,12.30
2007,06,23,09,58,12.40
2007,06,23,09,59,12.50
2007,06,23,10,00,12.60
2007,06,23,10,01,12.70
2007,06,23,10,02,12.70
2007,06,23,10,03,12.70
2007,06,23,10,04,12.80
2007,06,23,10,05,12.80
2007,06,23,10,06,12.80
2007,06,23,10,07,12.80
2007,06,23,10,08,12.90
2007,06,23,10,09,12.90
2007,06,23,10,10,12.90
2007,06,23,10,11,12.80
2007,06,23,10,12,12.70
2007,06,23,10,13,12.70
2007,06,23,10,14,12.70
2007,06,23,10,15,12.70
2007,06,23,10,16,12.70
2007,06,23,10,17,12.70
2007,06,23,10,18,12.70
2007,06,23,10,19,12.70
2007,06,23,10,20,12.60
2007,06,23,10,21,12.50
2007,06,23,10,22,12.30
2007,06,23,10,23,12.10
2007,06,23,10,24,12.00
2007,06,23,10,25,11.90
2007,06,23,10,26,11.90
2007,06,23,10,27,11.90
2007,06,23,10,28,11.90
2007,06,23,10,29,12.00
2007,06,23,10,30,12.00
2007,06,23,10,31,12.10
2007,06,23,10,32,12.20
2007,06,23,10,33,12.20
2007,06,23,10,34,12.30
2007,06,23,10,35,12.30
2007,06,23,10,36,12.20
2007,06,23,10,37,12.20
2007,06,23,10,38,12.10
2007,06,23,10,39,12.00
2007,06,23,10,40,12.00
2007,06,23,10,41,12.00
2007,06,23,10,42,11.90
2007,06,23,10,43,11.80
2007,06,23,10,44,11.70
2007,06,23,10,45,11.70
2007,06,23,10,46,11.70
2007,06,23,10,47,11.70
2007,06,23,10,48,11.80
2007,06,23,10,49,11.80
2007,06,23,10,50,11.80
2007,06,23,10,51,11.80
2007,06,23,10,52,11.90
2007,06,23,10,53,12.00
2007,06,23,10,54,12.00
2007,06,23,10,55,12.00
2007,06,23,10,56,12.10
2007,06,23,10,57,12.10
2007,06,23,10,58,12.10
2007,06,23,10,59,12.10
2007,06,23,11,00,12.10
2007,06,23,11,01,12.10
2007,06,23,11,02,12.20
2007,06,23,11,03,12.10
2007,06,23,11,04,12.20
2007,06,23,11,05,12.20
2007,06,23,11,06,12.20
2007,06,23,11,07,12.20
2007,06,23,11,08,12.10
2007,06,23,11,09,12.00
2007,06,23,11,10,12.00
2007,06,23,11,11,12.10
2007,06,23,11,12,12.10
2007,06,23,11,13,12.10
2007,06,23,11,14,12.20
2007,06,23,11,15,12.30
2007,06,23,11,16,12.40
2007,06,23,11,17,12.60
2007,06,23,11,18,12.70
2007,06,23,11,19,12.80
2007,06,23,11,20,12.90
2007,06,23,11,21,12.90
2007,06,23,11,22,13.00
2007,06,23,11,23,13.00
2007,06,23,11,24,13.10
2007,06,23,11,25,13.10
2007,06,23,11,26,13.10
2007,06,23,11,27,13.20
2007,06,23,11,28,13.20
2007,06,23,11,29,13.00
2007,06,23,11,30,12.90
2007,06,23,11,31,12.80
2007,06,23,11,32,12.80
2007,06,23,11,33,12.70
2007,06,23,11,34,12.60
2007,06,23,11,35,12.60
2007,06,23,11,36,12.70
2007,06,23,11,37,12.90
2007,06,23,11,38,13.00
2007,06,23,11,39,13.10
2007,06,23,11,40,13.20
2007,06,23,11,41,13.20
2007,06,23,11,42,13.20
2007,06,23,11,43,13.10
2007,06,23,11,44,13.00
2007,06,23,11,45,12.90
2007,06,23,11,46,12.90
2007,06,23,11,47,12.80
2007,06,23,11,48,12.80
2007,06,23,11,49,12.80
2007,06,23,11,50,12.80
2007,06,23,11,51,12.80
2007,06,23,11,52,12.90
2007,06,23,11,53,13.00
2007,06,23,11,54,13.10
2007,06,23,11,55,13.10
2007,06,23,11,56,13.10
2007,06,23,11,57,13.00
2007,06,23,11,58,12.90
2007,06,23,11,59,12.70
2007,06,23,12,00,12.70
2007,06,23,12,01,12.70
2007,06,23,12,02,12.60
2007,06,23,12,03,12.70
2007,06,23,12,04,12.80
2007,06,23,12,05,12.90
2007,06,23,12,06,13.00
2007,06,23,12,07,13.00
2007,06,23,12,08,12.90
2007,06,23,12,09,12.90
2007,06,23,12,10,12.90
2007,06,23,12,11,12.90
2007,06,23,12,12,13.00
2007,06,23,12,13,13.00
2007,06,23,12,14,13.00
2007,06,23,12,15,13.10
2007,06,23,12,16,13.20
2007,06,23,12,17,13.40
2007,06,23,12,18,13.40
2007,06,23,12,19,13.40
2007,06,23,12,20,13.40
2007,06,23,12,21,13.40
2007,06,23,12,22,13.30
2007,06,23,12,23,13.40
2007,06,23,12,24,13.40
2007,06,23,12,25,13.40
2007,06,23,12,26,13.50
2007,06,23,12,27,13.60
2007,06,23,12,28,13.60
2007,06,23,12,29,13.70
2007,06,23,12,30,13.70
2007,06,23,12,31,13.80
2007,06,23,12,32,13.80
2007,06,23,12,33,13.70
2007,06,23,12,34,13.70
2007,06,23,12,35,13.50
2007,06,23,12,36,13.40
2007,06,23,12,37,13.40
2007,06,23,12,38,13.40
2007,06,23,12,39,13.40
2007,06,23,12,40,13.40
2007,06,23,12,41,13.50
2007,06,23,12,42,13.60
2007,06,23,12,43,13.60
2007,06,23,12,44,13.60
2007,06,23,12,45,13.60
2007,06,23,12,46,13.80
2007,06,23,12,47,13.90
2007,06,23,12,48,14.10
2007,06,23,12,49,14.20
2007,06,23,12,50,14.20
2007,06,23,12,51,14.20
2007,06,23,12,52,14.20
2007,06,23,12,53,14.10
2007,06,23,12,54,14.00
2007,06,23,12,55,13.90
2007,06,23,12,56,13.80
2007,06,23,12,57,13.80
2007,06,23,12,58,13.80
2007,06,23,12,59,13.90
2007,06,23,13,00,14.00
2007,06,23,13,01,14.20
2007,06,23,13,02,14.30
2007,06,23,13,03,14.40
2007,06,23,13,04,14.40
2007,06,23,13,05,14.40
2007,06,23,13,06,14.60
2007,06,23,13,07,14.80
2007,06,23,13,08,14.90
2007,06,23,13,09,15.00
2007,06,23,13,10,15.00
2007,06,23,13,11,14.80
2007,06,23,13,12,14.80
2007,06,23,13,13,14.90
2007,06,23,13,14,15.00
2007,06,23,13,15,15.00
2007,06,23,13,16,15.00
2007,06,23,13,17,15.00
2007,06,23,13,18,14.90
2007,06,23,13,19,14.70
2007,06,23,13,20,14.60
2007,06,23,13,21,14.40
2007,06,23,13,22,14.30
2007,06,23,13,23,14.20
2007,06,23,13,24,14.30
2007,06,23,13,25,14.40
2007,06,23,13,26,14.50
2007,06,23,13,27,14.50
2007,06,23,13,28,14.40
2007,06,23,13,29,14.40
2007,06,23,13,30,14.30
2007,06,23,13,31,14.20
2007,06,23,13,32,14.30
2007,06,23,13,33,14.30
2007,06,23,13,34,14.30
2007,06,23,13,35,14.10
2007,06,23,13,36,14.00
2007,06,23,13,37,14.00
2007,06,23,13,38,13.90
2007,06,23,13,39,13.90
2007,06,23,13,40,13.80
2007,06,23,13,41,13.80
2007,06,23,13,42,13.80
2007,06,23,13,43,13.70
2007,06,23,13,44,13.60
2007,06,23,13,45,13.50
2007,06,23,13,46,13.50
2007,06,23,13,47,13.40
2007,06,23,13,48,13.40
2007,06,23,13,49,13.40
2007,06,23,13,50,13.40
2007,06,23,13,51,13.50
2007,06,23,13,52,13.60
2007,06,23,13,53,13.60
2007,06,23,13,54,13.60
2007,06,23,13,55,13.60
2007,06,23,13,56,13.70
2007,06,23,13,57,13.90
2007,06,23,13,58,14.00
2007,06,23,13,59,14.10
2007,06,23,14,00,14.20
2007,06,23,14,01,14.20
2007,06,23,14,02,14.30
2007,06,23,14,03,14.40
2007,06,23,14,04,14.40
2007,06,23,14,05,14.40
2007,06,23,14,06,14.40
2007,06,23,14,07,14.40
2007,06,23,14,08,14.30
2007,06,23,14,09,14.20
2007,06,23,14,10,14.20
2007,06,23,14,11,14.20
2007,06,23,14,12,14.10
2007,06,23,14,13,14.10
2007,06,23,14,14,14.00
2007,06,23,14,15,14.00
2007,06,23,14,16,14.10
2007,06,23,14,17,14.10
2007,06,23,14,18,14.10
2007,06,23,14,19,14.20
2007,06,23,14,20,14.20
2007,06,23,14,21,14.30
2007,06,23,14,22,14.30
2007,06,23,14,23,14.40
2007,06,23,14,24,14.50
2007,06,23,14,25,14.50
2007,06,23,14,26,14.50
2007,06,23,14,27,14.50
2007,06,23,14,28,14.60
2007,06,23,14,29,14.50
2007,06,23,14,30,14.50
2007,06,23,14,31,14.50
2007,06,23,14,32,14.50
2007,06,23,14,33,14.60
2007,06,23,14,34,14.50
2007,06,23,14,35,14.40
2007,06,23,14,36,14.40
2007,06,23,14,37,14.40
2007,06,23,14,38,14.40
2007,06,23,14,39,14.40
2007,06,23,14,40,14.40
2007,06,23,14,41,14.40
2007,06,23,14,42,14.30
2007,06,23,14,43,14.30
2007,06,23,14,44,14.20
2007,06,23,14,45,14.20
2007,06,23,14,46,14.20
2007,06,23,14,47,14.20
2007,06,23,14,48,14.10
2007,06,23,14,49,14.00
2007,06,23,14,50,14.00
2007,06,23,14,51,14.00
2007,06,23,14,52,14.00
2007,06,23,14,53,14.00
2007,06,23,14,54,14.10
2007,06,23,14,55,14.10
2007,06,23,14,56,14.10
2007,06,23,14,57,14.20
2007,06,23,14,58,14.10
2007,06,23,14,59,14.00
2007,06,23,15,00,13.90
2007,06,23,15,01,13.80
2007,06,23,15,02,13.90
2007,06,23,15,03,13.90
2007,06,23,15,04,13.90
2007,06,23,15,05,13.90
2007,06,23,15,06,14.00
2007,06,23,15,07,14.00
2007,06,23,15,08,14.10
2007,06,23,15,09,14.10
2007,06,23,15,10,14.10
2007,06,23,15,11,14.10
2007,06,23,15,12,14.10
2007,06,23,15,13,14.20
2007,06,23,15,14,14.20
2007,06,23,15,15,14.30
2007,06,23,15,16,14.40
2007,06,23,15,17,14.40
2007,06,23,15,18,14.40
2007,06,23,15,19,14.50
2007,06,23,15,20,14.50
2007,06,23,15,21,14.50
2007,06,23,15,22,14.50
2007,06,23,15,23,14.50
2007,06,23,15,24,14.60
2007,06,23,15,25,14.60
2007,06,23,15,26,14.70
2007,06,23,15,27,14.70
2007,06,23,15,28,14.70
2007,06,23,15,29,14.70
2007,06,23,15,30,14.70
2007,06,23,15,31,14.60
2007,06,23,15,32,14.60
2007,06,23,15,33,14.60
2007,06,23,15,34,14.70
2007,06,23,15,35,14.70
2007,06,23,15,36,14.70
2007,06,23,15,37,14.60
2007,06,23,15,38,14.60
2007,06,23,15,39,14.50
2007,06,23,15,40,14.50
2007,06,23,15,41,14.50
2007,06,23,15,42,14.60
2007,06,23,15,43,14.60
2007,06,23,15,44,14.70
2007,06,23,15,45,14.70
2007,06,23,15,46,14.80
2007,06,23,15,47,14.80
2007,06,23,15,48,15.00
2007,06,23,15,49,15.00
2007,06,23,15,50,15.00
2007,06,23,15,51,15.00
2007,06,23,15,52,15.00
2007,06,23,15,53,15.10
2007,06,23,15,54,15.20
2007,06,23,15,55,15.30
2007,06,23,15,56,15.30
2007,06,23,15,57,15.40
2007,06,23,15,58,15.50
2007,06,23,15,59,15.60
2007,06,23,16,00,15.70
2007,06,23,16,01,15.70
2007,06,23,16,02,15.80
2007,06,23,16,03,15.80
2007,06,23,16,04,15.80
2007,06,23,16,05,15.90
2007,06,23,16,06,16.00
2007,06,23,16,07,16.00
2007,06,23,16,08,16.10
2007,06,23,16,09,16.10
2007,06,23,16,10,16.20
2007,06,23,16,11,16.20
2007,06,23,16,12,16.20
2007,06,23,16,13,16.20
2007,06,23,16,14,16.20
2007,06,23,16,15,16.10
2007,06,23,16,16,16.10
2007,06,23,16,17,16.10
2007,06,23,16,18,16.20
2007,06,23,16,19,16.20
2007,06,23,16,20,16.30
2007,06,23,16,21,16.30
2007,06,23,16,22,16.30
2007,06,23,16,23,16.40
2007,06,23,16,24,16.40
2007,06,23,16,25,16.40
2007,06,23,16,26,16.40
2007,06,23,16,27,16.40
2007,06,23,16,28,16.40
2007,06,23,16,29,16.40
2007,06,23,16,30,16.40
2007,06,23,16,31,16.40
2007,06,23,16,32,16.40
2007,06,23,16,33,16.30
2007,06,23,16,34,16.30
2007,06,23,16,35,16.20
2007,06,23,16,36,16.10
2007,06,23,16,37,16.10
2007,06,23,16,38,16.10
2007,06,23,16,39,16.00
2007,06,23,16,40,16.00
2007,06,23,16,41,15.90
2007,06,23,16,42,15.90
2007,06,23,16,43,15.90
2007,06,23,16,44,15.80
2007,06,23,16,45,15.80
2007,06,23,16,46,15.80
2007,06,23,16,47,15.80
2007,06,23,16,48,15.90
2007,06,23,16,49,15.90
2007,06,23,16,50,16.00
2007,06,23,16,51,16.10
2007,06,23,16,52,16.10
2007,06,23,16,53,16.20
2007,06,23,16,54,16.20
2007,06,23,16,55,16.20
2007,06,23,16,56,16.30
2007,06,23,16,57,16.30
2007,06,23,16,58,16.30
2007,06,23,16,59,16.40
2007,06,23,17,00,16.40
2007,06,23,17,01,16.40
2007,06,23,17,02,16.30
2007,06,23,17,03,16.30
2007,06,23,17,04,16.30
2007,06,23,17,05,16.30
2007,06,23,17,06,16.30
2007,06,23,17,07,16.20
2007,06,23,17,08,16.20
2007,06,23,17,09,16.20
2007,06,23,17,10,16.20
2007,06,23,17,11,16.20
2007,06,23,17,12,16.20
2007,06,23,17,13,16.10
2007,06,23,17,14,16.10
2007,06,23,17,15,16.10
2007,06,23,17,16,16.00
2007,06,23,17,17,16.00
2007,06,23,17,18,16.00
2007,06,23,17,19,16.00
2007,06,23,17,20,16.00
2007,06,23,17,21,16.00
2007,06,23,17,22,16.00
2007,06,23,17,23,16.00
2007,06,23,17,24,16.10
2007,06,23,17,25,16.10
2007,06,23,17,26,16.10
2007,06,23,17,27,16.00
2007,06,23,17,28,16.00
2007,06,23,17,29,16.00
2007,06,23,17,30,15.90
2007,06,23,17,31,15.90
2007,06,23,17,32,15.90
2007,06,23,17,33,15.90
2007,06,23,17,34,16.00
2007,06,23,17,35,16.00
2007,06,23,17,36,16.00
2007,06,23,17,37,16.10
2007,06,23,17,38,16.10
2007,06,23,17,39,16.10
2007,06,23,17,40,16.10
2007,06,23,17,41,16.10
2007,06,23,17,42,16.10
2007,06,23,17,43,16.20
2007,06,23,17,44,16.20
2007,06,23,17,45,16.20
2007,06,23,17,46,16.20
2007,06,23,17,47,16.10
2007,06,23,17,48,16.10
2007,06,23,17,49,16.10
2007,06,23,17,50,16.10
2007,06,23,17,51,16.10
2007,06,23,17,52,16.10
2007,06,23,17,53,16.20
2007,06,23,17,54,16.20
2007,06,23,17,55,16.20
2007,06,23,17,56,16.20
2007,06,23,17,57,16.30
2007,06,23,17,58,16.30
2007,06,23,17,59,16.30
2007,06,23,18,00,16.30
2007,06,23,18,01,16.30
2007,06,23,18,02,16.30
2007,06,23,18,03,16.20
2007,06,23,18,04,16.20
2007,06,23,18,05,16.10
2007,06,23,18,06,16.10
2007,06,23,18,07,16.10
2007,06,23,18,08,16.10